EW3937 Weather Reports


Display with metric or nautical units.
time (UTC)temp
F
wind
direction
speed
MPH
gust
MPH
rain 1hr
in
rain 24hr
in
rain mn
in
humidity
%
barometer
mb
20260905021503 60 328 0.0 1.0 0.00 0.46 0.03 56 1015.0
20260905021218 60 325 0.0 2.0 0.00 0.47 0.03 55 1015.0
20260905020503 61 321 1.0 3.0 0.00 0.48 0.03 53 1015.0
20260905020003 62 321 1.0 3.0 0.00 0.49 0.03 53 1015.0
20260905015503 63 322 2.0 4.0 0.00 0.50 0.03 51 1015.0
20260905015003 63 321 2.0 4.0 0.00 0.51 0.03 50 1015.0
20260905014503 63 321 2.0 5.0 0.00 0.52 0.03 51 1015.0
20260905014003 63 325 2.0 5.0 0.00 0.52 0.03 50 1015.0
20260905013503 64 327 2.0 5.0 0.00 0.52 0.03 50 1015.0
20260905013003 64 326 2.0 5.0 0.00 0.52 0.03 49 1015.0
20260905012503 64 327 2.0 5.0 0.00 0.52 0.03 49 1015.0
20260905012003 64 324 1.0 5.0 0.00 0.52 0.03 49 1015.0
20260905011503 64 322 1.0 4.0 0.00 0.52 0.03 48 1015.0
20260905011218 64 328 1.0 4.0 0.00 0.52 0.03 48 1015.0
20260905010717 64 331 1.0 4.0 0.00 0.52 0.03 46 1014.9
20260905010004 64 326 1.0 4.0 0.00 0.52 0.03 47 1014.8
20260905005503 64 328 1.0 4.0 0.00 0.52 0.03 49 1014.8
20260905005003 64 324 1.0 4.0 0.00 0.52 0.03 46 1014.8
20260905004503 65 306 1.0 3.0 0.00 0.52 0.03 47 1014.9
20260905004003 64 308 1.0 3.0 0.00 0.52 0.03 47 1014.9
20260905003503 64 324 1.0 5.0 0.00 0.52 0.03 49 1014.9
20260905003003 64 327 2.0 5.0 0.00 0.52 0.03 50 1014.9
20260905002716 64 328 1.0 5.0 0.00 0.52 0.03 49 1014.9
20260905002003 64 322 1.0 5.0 0.00 0.52 0.03 50 1014.8
20260905001503 63 298 1.0 3.0 0.00 0.52 0.03 50 1014.7
20260905001003 63 311 1.0 3.0 0.00 0.52 0.03 49 1014.7
20260905000503 64 324 1.0 4.0 0.00 0.52 0.03 50 1014.6
20260905000219 64 321 1.0 4.0 0.00 0.52 0.03 49 1014.7
20260904235503 64 303 1.0 3.0 0.00 0.52 0.03 46 1014.6
20260904235003 65 320 1.0 4.0 0.00 0.52 0.03 46 1014.6
20260904234503 65 318 1.0 4.0 0.00 0.52 0.03 44 1014.5
20260904234003 65 306 2.0 4.0 0.00 0.52 0.03 45 1014.5
20260904233503 65 319 1.0 6.0 0.00 0.52 0.03 46 1014.6
20260904233003 65 321 1.0 6.0 0.00 0.52 0.03 45 1014.6
20260904232503 66 292 1.0 4.0 0.00 0.52 0.03 46 1014.6
20260904232217 65 297 1.0 4.0 0.00 0.52 0.03 48 1014.6
20260904231503 65 318 1.0 5.0 0.00 0.52 0.03 47 1014.6
20260904231003 65 321 1.0 6.0 0.00 0.52 0.03 48 1014.7
20260904230503 66 321 1.0 6.0 0.00 0.52 0.03 48 1014.7
20260904230003 65 317 1.0 3.0 0.00 0.52 0.03 45 1014.8
20260904225718 65 298 2.0 3.0 0.00 0.52 0.03 46 1014.8
20260904225003 65 213 2.0 5.0 0.00 0.52 0.03 48 1014.8
20260904224503 64 219 2.0 5.0 0.00 0.52 0.03 46 1014.8
20260904224217 64 226 2.0 5.0 0.00 0.52 0.03 45 1014.9
20260904223503 64 226 2.0 6.0 0.00 0.52 0.03 49 1014.9
20260904223003 64 218 2.0 6.0 0.00 0.52 0.03 48 1014.8
20260904222718 65 219 2.0 5.0 0.00 0.52 0.03 48 1014.8
20260904222003 65 228 2.0 7.0 0.00 0.52 0.03 48 1014.8
20260904221503 65 223 2.0 4.0 0.00 0.52 0.03 49 1014.8
20260904221003 64 219 3.0 5.0 0.00 0.52 0.03 46 1014.8
20260904220503 64 228 2.0 6.0 0.00 0.52 0.03 48 1014.9
20260904220003 65 234 1.0 6.0 0.00 0.52 0.03 46 1014.9
20260904215717 65 241 1.0 6.0 0.00 0.52 0.03 46 1014.9
20260904215003 65 330 1.0 3.0 0.00 0.52 0.03 50 1014.9
20260904214503 65 318 1.0 3.0 0.00 0.52 0.03 50 1014.9
20260904214216 65 298 1.0 3.0 0.00 0.52 0.03 51 1014.9
20260904213503 64 224 2.0 5.0 0.00 0.52 0.03 49 1014.8
20260904213003 64 217 2.0 6.0 0.00 0.52 0.03 52 1014.7
20260904212503 64 220 1.0 6.0 0.00 0.52 0.03 50 1014.7
20260904212003 64 227 1.0 4.0 0.00 0.52 0.03 50 1014.7
20260904211503 64 220 1.0 4.0 0.00 0.52 0.03 49 1014.8
20260904211003 64 212 1.0 4.0 0.00 0.52 0.03 49 1014.8
20260904210503 64 216 1.0 5.0 0.00 0.52 0.03 50 1014.8
20260904210003 64 224 1.0 5.0 0.00 0.52 0.03 50 1014.8
20260904205717 64 230 2.0 4.0 0.00 0.52 0.03 54 1014.7
20260904205003 63 236 2.0 6.0 0.00 0.52 0.03 51 1014.8
20260904204503 63 232 2.0 6.0 0.00 0.52 0.03 53 1014.9
20260904204003 63 223 2.0 8.0 0.00 0.52 0.03 53 1014.8
20260904203503 63 220 2.0 8.0 0.00 0.52 0.03 56 1014.9
20260904203003 62 222 2.0 7.0 0.00 0.52 0.03 55 1014.9
20260904202503 62 217 2.0 5.0 0.00 0.52 0.03 56 1014.9
20260904202003 62 217 2.0 6.0 0.00 0.52 0.03 57 1014.9
20260904201717 61 219 2.0 6.0 0.00 0.52 0.03 55 1014.9
20260904201218 62 217 1.0 6.0 0.00 0.52 0.03 56 1014.9
20260904200503 62 223 1.0 4.0 0.00 0.52 0.03 58 1014.9
20260904200003 62 225 2.0 4.0 0.00 0.52 0.03 56 1014.9
20260904195503 62 230 2.0 5.0 0.00 0.52 0.03 57 1014.9
20260904195003 61 222 2.0 7.0 0.00 0.52 0.03 58 1014.9
20260904194503 61 212 2.0 7.0 0.00 0.52 0.03 57 1014.9
20260904194003 62 198 1.0 5.0 0.00 0.52 0.03 59 1015.0
20260904193503 61 202 1.0 7.0 0.00 0.52 0.03 64 1015.0
20260904193003 61 202 0.0 7.0 0.00 0.52 0.03 61 1015.1
20260904192717 61 196 0.0 7.0 0.00 0.52 0.03 62 1015.1
20260904192003 61 163 2.0 4.0 0.00 0.52 0.03 59 1015.1
20260904191503 61 204 3.0 7.0 0.00 0.52 0.03 61 1015.1
20260904191003 60 201 2.0 9.0 0.00 0.52 0.03 59 1015.1
20260904190503 61 193 1.0 9.0 0.00 0.52 0.03 62 1015.0
20260904190003 61 195 1.0 7.0 0.00 0.52 0.03 60 1015.0
20260904185503 60 208 2.0 5.0 0.00 0.52 0.03 61 1015.0
20260904185003 60 202 2.0 5.0 0.00 0.52 0.03 62 1015.1
20260904184503 60 202 1.0 5.0 0.00 0.52 0.03 63 1015.0
20260904184217 61 196 1.0 5.0 0.00 0.52 0.03 65 1015.1
20260904183503 61 190 1.0 7.0 0.00 0.52 0.03 65 1015.1
20260904183003 61 183 1.0 7.0 0.00 0.52 0.03 64 1015.1
20260904182503 62 150 1.0 5.0 0.00 0.52 0.03 65 1015.1
20260904182217 61 144 1.0 3.0 0.00 0.52 0.03 66 1015.1
20260904181503 60 96 1.0 4.0 0.00 0.52 0.03 66 1015.0
20260904181003 61 152 1.0 5.0 0.00 0.52 0.03 68 1015.1
20260904180503 60 159 0.0 5.0 0.00 0.52 0.03 69 1015.1
20260904180004 60 165 0.0 4.0 0.00 0.52 0.03 67 1015.2
20260904175503 60 145 1.0 3.0 0.00 0.52 0.03 70 1015.0
20260904175003 60 105 0.0 3.0 0.00 0.52 0.03 71 1014.9
20260904174718 59 113 0.0 3.0 0.00 0.52 0.03 68 1014.9
20260904174003 60 173 1.0 3.0 0.00 0.52 0.03 71 1014.9
20260904173503 59 164 1.0 4.0 0.00 0.52 0.03 71 1014.8
20260904173003 58 138 1.0 4.0 0.00 0.52 0.03 71 1014.8
20260904172503 58 107 1.0 2.0 0.00 0.52 0.03 70 1014.8
20260904172003 58 114 1.0 3.0 0.00 0.52 0.03 68 1014.8
20260904171718 58 129 0.0 3.0 0.00 0.52 0.03 69 1014.8
20260904171003 58 0 0.0 3.0 0.00 0.52 0.03 72 1014.7
20260904170503 57 0 0.0 3.0 0.00 0.52 0.03 74 1014.7
20260904170004 57 0 0.0 2.0 0.00 0.52 0.03 75 1014.7
20260904165503 57 95 0.0 2.0 0.00 0.52 0.03 74 1014.6
20260904165003 56 72 0.0 1.0 0.00 0.52 0.03 77 1014.5
20260904164503 56 82 0.0 2.0 0.00 0.52 0.03 75 1014.5
20260904164003 56 0 0.0 2.0 0.00 0.52 0.03 73 1014.6
20260904163503 56 0 0.0 3.0 0.00 0.52 0.03 79 1014.5
20260904163003 55 0 0.0 3.0 0.00 0.52 0.03 81 1014.5
20260904162717 55 0 0.0 3.0 0.00 0.52 0.03 80 1014.5
20260904162003 55 0 0.0 3.0 0.00 0.52 0.03 83 1014.5
20260904161504 54 0 0.0 6.0 0.00 0.52 0.03 84 1014.5
20260904161003 54 0 0.0 6.0 0.00 0.52 0.03 86 1014.4
20260904160717 53 0 0.0 6.0 0.00 0.52 0.03 86 1014.3
20260904160004 52 87 1.0 2.0 0.00 0.52 0.03 87 1014.3
20260904155503 52 103 1.0 3.0 0.00 0.52 0.03 88 1014.3
20260904155003 52 98 0.0 3.0 0.00 0.53 0.03 88 1014.3
20260904154503 51 0 0.0 2.0 0.00 0.53 0.03 88 1014.2
20260904154003 51 0 0.0 1.0 0.00 0.54 0.03 90 1014.2
20260904153717 50 0 0.0 1.0 0.00 0.54 0.03 90 1014.1
20260904153003 50 100 0.0 2.0 0.00 0.54 0.03 89 1014.1
20260904152503 50 100 1.0 2.0 0.00 0.54 0.03 89 1014.1
20260904152003 50 104 1.0 3.0 0.00 0.54 0.03 89 1014.0
20260904151503 50 94 1.0 3.0 0.00 0.54 0.03 89 1014.0
20260904151003 50 89 0.0 2.0 0.00 0.54 0.03 90 1013.9
20260904150503 49 0 2.0 2.0 0.00 0.54 0.03 90 1013.9
20260904150003 49 0 2.0 2.0 0.00 0.54 0.03 90 1013.8
20260904145508 49 0 2.0 2.0 0.00 0.54 0.03 89 1013.7
20260904145003 49 0 3.0 3.0 0.00 0.54 0.03 90 1013.7
20260904144503 48 0 3.0 3.0 0.00 0.54 0.03 92 1013.6
20260904144003 48 0 1.0 1.0 0.00 0.54 0.03 92 1013.5
20260904143717 48 0 1.0 1.0 0.00 0.54 0.03 93 1013.5
20260904143003 47 0 1.0 1.0 0.00 0.54 0.03 93 1013.4
20260904142503 46 0 1.0 1.0 0.00 0.54 0.03 93 1013.5
20260904142003 46 0 1.0 1.0 0.00 0.54 0.03 93 1013.5
20260904141503 47 0 1.0 1.0 0.00 0.54 0.03 92 1013.5
20260904141003 47 0 1.0 1.0 0.00 0.54 0.03 92 1013.4
20260904140503 47 0 1.0 1.0 0.00 0.54 0.03 92 1013.3
20260904140003 47 0 1.0 1.0 0.00 0.54 0.03 92 1013.0
20260904135503 47 0 1.0 1.0 0.00 0.54 0.03 92 1013.0
20260904135003 47 0 1.0 1.0 0.00 0.54 0.03 92 1013.0
20260904134503 47 0 1.0 1.0 0.00 0.54 0.03 92 1013.0
20260904134003 47 0 1.0 1.0 0.00 0.54 0.03 92 1012.9
20260904133503 47 0 1.0 1.0 0.00 0.54 0.03 92 1012.9
20260904133003 47 0 1.0 1.0 0.00 0.54 0.03 92 1012.9
20260904132503 47 0 1.0 1.0 0.00 0.54 0.03 92 1012.9
20260904132003 47 0 1.0 1.0 0.00 0.54 0.03 92 1012.8
20260904131718 47 0 1.0 1.0 0.00 0.54 0.03 92 1012.7
20260904131003 47 0 1.0 1.0 0.00 0.54 0.03 92 1012.4
20260904130503 47 0 1.0 1.0 0.00 0.54 0.03 92 1012.4
20260904130003 47 0 1.0 1.0 0.00 0.54 0.03 92 1012.4
20260904125718 47 0 1.0 1.0 0.00 0.54 0.03 92 1012.4
20260904125003 47 0 1.0 1.0 0.00 0.54 0.03 92 1012.3
20260904124718 47 0 1.0 1.0 0.00 0.54 0.03 92 1012.1
20260904124003 47 0 1.0 1.0 0.00 0.54 0.03 92 1012.0
20260904123503 47 0 1.0 1.0 0.00 0.54 0.03 92 1012.0
20260904123003 47 0 1.0 1.0 0.00 0.54 0.03 92 1012.0
20260904122503 47 0 1.0 1.0 0.00 0.54 0.03 92 1011.8
20260904122003 47 0 1.0 1.0 0.00 0.54 0.03 92 1012.0
20260904121718 47 0 1.0 1.0 0.00 0.54 0.03 92 1012.0
20260904121217 47 0 1.0 1.0 0.00 0.54 0.03 92 1012.0
20260904120503 47 0 1.0 1.0 0.00 0.54 0.03 92 1012.0
20260904120003 47 0 1.0 1.0 0.00 0.54 0.03 92 1012.0
20260904115503 47 0 1.0 1.0 0.00 0.54 0.03 92 1011.6
20260904115003 47 0 1.0 1.0 0.00 0.54 0.03 92 1011.6
20260904114503 47 0 1.0 1.0 0.00 0.54 0.03 92 1011.6
20260904114003 47 0 1.0 1.0 0.00 0.54 0.03 92 1011.7
20260904113503 47 0 1.0 1.0 0.00 0.54 0.03 92 1011.7
20260904113003 47 0 1.0 1.0 0.00 0.54 0.03 92 1011.5
20260904112503 47 0 1.0 1.0 0.00 0.54 0.03 92 1011.5
20260904112003 47 0 1.0 1.0 0.00 0.54 0.03 92 1011.5
20260904111503 47 0 1.0 1.0 0.00 0.54 0.03 92 1011.3
20260904111003 47 0 1.0 1.0 0.00 0.54 0.03 92 1011.4
20260904110503 47 0 1.0 1.0 0.00 0.54 0.03 92 1011.3
20260904110003 47 0 0.0 0.0 0.00 0.54 0.03 92 1011.3
20260904105503 47 0 1.0 1.0 0.00 0.54 0.03 92 1011.3
20260904105003 47 0 1.0 1.0 0.00 0.54 0.03 93 1011.3
20260904104503 47 0 1.0 1.0 0.00 0.54 0.03 93 1011.2
20260904104003 47 0 1.0 1.0 0.00 0.54 0.03 93 1011.1
20260904103503 47 0 1.0 1.0 0.00 0.54 0.03 93 1011.2
20260904103003 47 0 2.0 2.0 0.00 0.54 0.03 93 1011.2
20260904102503 47 0 2.0 2.0 0.00 0.55 0.03 93 1011.2
20260904102003 47 0 0.0 0.0 0.01 0.55 0.03 93 1011.1
20260904101717 47 0 1.0 1.0 0.01 0.56 0.03 93 1011.1
20260904101218 47 0 3.0 3.0 0.01 0.57 0.03 92 1011.1
20260904100503 48 0 3.0 3.0 0.01 0.58 0.03 93 1011.1
20260904100003 48 0 1.0 1.0 0.01 0.59 0.03 92 1011.0
20260904095503 48 0 1.0 1.0 0.01 0.60 0.03 92 1010.9
20260904095003 48 0 1.0 1.0 0.01 0.63 0.03 92 1010.9
20260904094503 48 0 0.0 0.0 0.01 0.67 0.03 93 1011.0
20260904094003 48 0 0.0 0.0 0.01 0.73 0.03 92 1010.9
20260904093503 48 0 0.0 0.0 0.01 0.73 0.03 92 1010.9
20260904093003 48 0 0.0 0.0 0.01 0.73 0.03 92 1011.0
20260904092503 47 0 0.0 0.0 0.01 0.73 0.03 92 1011.1
20260904092003 47 0 0.0 0.0 0.00 0.72 0.02 92 1011.1
20260904091503 47 0 0.0 0.0 0.01 0.72 0.02 92 1010.9
20260904091003 47 0 0.0 0.0 0.01 0.73 0.02 92 1010.9
20260904090503 47 0 0.0 0.0 0.01 0.73 0.02 92 1010.8
20260904090004 47 0 0.0 0.0 0.01 0.74 0.02 92 1010.9
20260904085503 47 0 0.0 0.0 0.01 0.74 0.02 92 1011.1
20260904085003 47 0 0.0 0.0 0.01 0.74 0.02 92 1010.9
20260904084716 47 0 1.0 1.0 0.01 0.74 0.02 92 1010.8
20260904084005 47 0 1.0 1.0 0.01 0.75 0.02 92 1010.8
20260904083718 47 0 0.0 0.0 0.02 0.75 0.02 92 1010.7
20260904083003 47 0 0.0 0.0 0.02 0.76 0.02 92 1010.8
20260904082503 47 0 1.0 1.0 0.02 0.77 0.02 92 1010.8
20260904082003 47 0 1.0 1.0 0.02 0.78 0.02 92 1010.9
20260904081503 47 0 1.0 1.0 0.01 0.77 0.01 92 1010.9
20260904081003 48 0 2.0 2.0 0.01 0.78 0.01 92 1010.9
20260904080503 48 0 2.0 2.0 0.01 0.79 0.01 92 1011.0
20260904080003 48 0 0.0 1.0 0.01 0.79 0.01 92 1010.8
20260904075503 48 0 0.0 0.0 0.01 0.80 0.01 92 1010.8
20260904075003 47 0 0.0 0.0 0.01 0.80 0.01 92 1010.6
20260904074718 48 0 0.0 0.0 0.01 0.80 0.01 92 1010.7
20260904074003 48 0 0.0 0.0 0.01 0.81 0.01 92 1010.8
20260904073503 48 0 0.0 0.0 0.00 0.81 0.00 92 1010.7
20260904073003 48 0 0.0 0.0 0.00 0.82 0.00 92 1010.7
20260904072503 48 0 0.0 0.0 0.00 0.82 0.00 92 1010.6
20260904072003 48 0 0.0 0.0 0.00 0.82 0.00 92 1010.5
20260904071503 48 0 0.0 1.0 0.01 0.83 0.00 92 1010.5
20260904071003 48 0 3.0 3.0 0.01 0.83 0.00 92 1010.3
20260904070718 48 0 0.0 3.0 0.01 0.83 0.00 92 1010.3
20260904070005 48 156 1.0 3.0 0.02 0.84 0.00 92 1010.1
20260904065718 48 178 1.0 3.0 0.02 0.84 0.84 92 1010.1
20260904065217 48 174 3.0 7.0 0.03 0.84 0.84 91 1009.9
20260904064503 48 186 4.0 6.0 0.05 0.85 0.84 91 1010.1
20260904064003 48 189 4.0 7.0 0.07 0.85 0.84 92 1010.3
20260904063718 48 192 4.0 7.0 0.08 0.85 0.84 92 1010.5
20260904063003 48 198 5.0 7.0 0.10 0.85 0.84 92 1010.4
20260904062503 48 194 5.0 10.0 0.12 0.85 0.84 92 1010.4
20260904062003 48 189 5.0 10.0 0.13 0.85 0.84 92 1010.4
20260904061503 48 195 4.0 9.0 0.13 0.84 0.83 92 1010.4
20260904061003 48 200 3.0 8.0 0.15 0.84 0.83 92 1010.3
20260904060503 48 199 3.0 7.0 0.16 0.84 0.83 92 1010.3
20260904060003 48 197 4.0 7.0 0.16 0.83 0.82 92 1010.3
20260904055503 49 200 5.0 7.0 0.15 0.82 0.81 92 1010.4
20260904055003 49 205 5.0 11.0 0.14 0.81 0.80 92 1010.5
20260904054503 49 207 5.0 11.0 0.14 0.80 0.79 92 1010.7
20260904054216 49 207 5.0 9.0 0.13 0.79 0.78 92 1010.7
20260904053503 49 206 4.0 9.0 0.11 0.76 0.75 92 1010.7
20260904053003 49 205 5.0 8.0 0.11 0.75 0.74 91 1010.7
20260904052503 49 206 5.0 8.0 0.10 0.73 0.72 91 1010.7
20260904052003 49 207 5.0 8.0 0.10 0.72 0.71 91 1010.7
20260904051717 49 206 5.0 8.0 0.09 0.71 0.70 91 1010.7
20260904051003 49 205 6.0 10.0 0.09 0.69 0.68 91 1010.8
20260904050503 49 204 5.0 10.0 0.09 0.68 0.67 91 1010.8
20260904050003 49 205 5.0 9.0 0.08 0.67 0.66 91 1010.7
20260904045503 49 207 4.0 8.0 0.09 0.67 0.66 91 1010.6
20260904045218 49 207 3.0 8.0 0.09 0.67 0.66 91 1010.6
20260904044503 49 211 3.0 7.0 0.09 0.66 0.65 91 1010.7
20260904044003 49 212 3.0 7.0 0.09 0.66 0.65 91 1010.8
20260904043717 49 208 4.0 6.0 0.09 0.65 0.65 91 1010.9
20260904043003 49 204 5.0 8.0 0.08 0.64 0.63 90 1010.8
20260904042503 49 205 5.0 8.0 0.08 0.63 0.62 90 1010.8
20260904042003 49 206 5.0 10.0 0.08 0.62 0.61 90 1010.7
20260904041503 49 206 5.0 10.0 0.08 0.61 0.60 90 1010.8
20260904041003 49 206 5.0 9.0 0.07 0.60 0.59 90 1010.7
20260904040503 49 205 5.0 9.0 0.07 0.59 0.58 89 1010.7
20260904040218 49 206 5.0 9.0 0.08 0.59 0.58 90 1010.6
20260904035503 49 205 5.0 10.0 0.08 0.58 0.57 90 1010.7
20260904035003 49 204 5.0 10.0 0.09 0.58 0.57 90 1010.7
20260904034503 49 205 6.0 10.0 0.08 0.57 0.56 89 1010.6
20260904034003 49 203 7.0 11.0 0.09 0.57 0.56 90 1010.6
20260904033503 49 204 6.0 11.0 0.09 0.56 0.55 89 1010.6
20260904033003 50 199 5.0 10.0 0.11 0.56 0.55 90 1010.5
20260904032503 50 187 4.0 9.0 0.11 0.55 0.54 90 1010.6
20260904032003 50 183 4.0 7.0 0.11 0.54 0.53 90 1010.7
20260904031503 50 182 4.0 6.0 0.11 0.53 0.53 90 1010.8
20260904031003 50 189 3.0 7.0 0.12 0.53 0.52 90 1010.8
20260904030503 50 185 2.0 7.0 0.12 0.52 0.51 89 1010.8
20260904030003 50 162 1.0 5.0 0.12 0.51 0.50 89 1010.7
20260904025503 50 168 1.0 3.0 0.12 0.50 0.49 88 1010.7
20260904025003 50 187 1.0 4.0 0.12 0.49 0.48 88 1010.5
20260904024503 50 192 0.0 4.0 0.13 0.49 0.48 88 1010.5
20260904024003 50 0 0.0 4.0 0.12 0.48 0.47 89 1010.5
20260904023718 50 0 0.0 4.0 0.11 0.47 0.46 88 1010.5
20260904023003 50 0 0.0 2.0 0.09 0.45 0.44 87 1010.4
20260904022718 50 133 0.0 2.0 0.09 0.45 0.44 86 1010.3
20260904022003 51 89 1.0 2.0 0.07 0.43 0.42 85 1010.1